• en Belgique
  • Liste des pays
  • À 7 jours
  • Température de l'eau
  • Carte satellitaire
  • Carte météo
  • Widgets météo
  • user-avatar
    Se connecter

    Météo par heure à Podele

    Ce jour, 25 Septembre, Mardi

    Heure Température Précipitation Vent Pression Humidité
    00:00 +7°C° 1.6 mm 5 m/s 729 mmHg 93%
    01:00 +7°C° 1.6 mm 4 m/s 728 mmHg 93%
    02:00 +8°C° 0 mm 3 m/s 728 mmHg 94%
    03:00 +8°C° 1.1 mm 3 m/s 728 mmHg 94%
    04:00 +7°C° 1.1 mm 4 m/s 728 mmHg 94%
    05:00 +6°C° 1.1 mm 4 m/s 728 mmHg 94%
    06:00 +6°C° 0.5 mm 5 m/s 729 mmHg 92%
    07:00 +6°C° 0.5 mm 5 m/s 729 mmHg 91%
    08:00 +5°C° 0 mm 6 m/s 730 mmHg 90%
    09:00 +5°C° 0.3 mm 6 m/s 731 mmHg 89%
    10:00 +5°C° 0.3 mm 7 m/s 732 mmHg 88%
    11:00 +5°C° 0.3 mm 7 m/s 732 mmHg 87%
    12:00 +5°C° 0.5 mm 7 m/s 733 mmHg 86%
    13:00 +5°C° 0.5 mm 7 m/s 734 mmHg 85%
    14:00 +7°C° 0 mm 6 m/s 736 mmHg 82%
    15:00 +7°C° 0.2 mm 6 m/s 736 mmHg 81%
    16:00 +7°C° 0.2 mm 5 m/s 737 mmHg 79%
    17:00 +7°C° 0.2 mm 5 m/s 738 mmHg 78%
    18:00 +6°C° 0 mm 5 m/s 739 mmHg 79%
    19:00 +5°C° 0 mm 5 m/s 740 mmHg 80%
    20:00 +5°C° 0 mm 5 m/s 741 mmHg 81%
    21:00 +4°C° 0 mm 4 m/s 741 mmHg 82%
    22:00 +4°C° 0 mm 4 m/s 742 mmHg 82%
    23:00 +3°C° 0 mm 4 m/s 743 mmHg 83%

    Demain, 26 Septembre, Mercredi

    Heure Température Précipitation Vent Pression Humidité
    00:00 +3°C° 0 mm 4 m/s 744 mmHg 83%
    01:00 +3°C° 0 mm 4 m/s 744 mmHg 83%
    02:00 +1°C° 0 mm 4 m/s 745 mmHg 84%
    03:00 +1°C° 0 mm 4 m/s 745 mmHg 84%
    04:00 0°C° 0 mm 4 m/s 746 mmHg 84%
    05:00 0°C° 0 mm 4 m/s 746 mmHg 85%
    06:00 +1°C° 0 mm 4 m/s 747 mmHg 82%
    07:00 +3°C° 0 mm 4 m/s 747 mmHg 79%
    08:00 +3°C° 0 mm 4 m/s 747 mmHg 76%
    09:00 +5°C° 0 mm 4 m/s 747 mmHg 73%
    10:00 +6°C° 0 mm 4 m/s 747 mmHg 71%
    11:00 +8°C° 0 mm 4 m/s 747 mmHg 69%
    12:00 +8°C° 0 mm 5 m/s 747 mmHg 67%
    13:00 +9°C° 0 mm 5 m/s 746 mmHg 64%
    14:00 +10°C° 0 mm 5 m/s 746 mmHg 62%
    15:00 +9°C° 0 mm 5 m/s 745 mmHg 64%
    16:00 +8°C° 0 mm 5 m/s 745 mmHg 66%
    17:00 +8°C° 0 mm 5 m/s 744 mmHg 68%
    18:00 +7°C° 0.1 mm 5 m/s 743 mmHg 69%
    19:00 +7°C° 0.1 mm 6 m/s 742 mmHg 69%
    20:00 +6°C° 0.1 mm 7 m/s 741 mmHg 70%
    21:00 +5°C° 1.2 mm 7 m/s 739 mmHg 75%
    22:00 +5°C° 1.2 mm 8 m/s 738 mmHg 80%
    23:00 +3°C° 1.2 mm 9 m/s 737 mmHg 85%

    Après-demain, 27 Septembre, Jeudi

    Heure Température Précipitation Vent Pression Humidité
    00:00 +3°C° 1.8 mm 9 m/s 735 mmHg 86%
    01:00 +4°C° 1.8 mm 8 m/s 734 mmHg 87%
    02:00 +4°C° 1.8 mm 8 m/s 733 mmHg 88%
    03:00 +5°C° 1.1 mm 8 m/s 732 mmHg 88%
    04:00 +5°C° 1.1 mm 7 m/s 732 mmHg 89%
    05:00 +6°C° 1.1 mm 7 m/s 731 mmHg 89%
    06:00 +7°C° 0.4 mm 6 m/s 731 mmHg 85%
    07:00 +7°C° 0.4 mm 6 m/s 731 mmHg 82%
    08:00 +7°C° 0.4 mm 6 m/s 732 mmHg 79%
    09:00 +8°C° 0.2 mm 6 m/s 732 mmHg 75%
    10:00 +8°C° 0.2 mm 7 m/s 732 mmHg 71%
    11:00 +7°C° 0.2 mm 8 m/s 732 mmHg 67%
    12:00 +7°C° 0.2 mm 8 m/s 733 mmHg 68%
    13:00 +7°C° 0.2 mm 8 m/s 733 mmHg 68%
    14:00 +7°C° 0.2 mm 8 m/s 733 mmHg 69%
    15:00 +6°C° 0.1 mm 7 m/s 734 mmHg 70%
    16:00 +7°C° 0.1 mm 6 m/s 734 mmHg 71%
    17:00 +6°C° 0.1 mm 5 m/s 735 mmHg 73%
    18:00 +6°C° 0 mm 5 m/s 735 mmHg 74%
    19:00 +5°C° 0 mm 5 m/s 735 mmHg 75%
    20:00 +5°C° 0 mm 4 m/s 736 mmHg 76%
    21:00 +4°C° 0 mm 4 m/s 736 mmHg 77%
    22:00 +4°C° 0 mm 4 m/s 736 mmHg 77%
    23:00 +3°C° 0 mm 5 m/s 736 mmHg 77%

    28 Septembre, Vendredi

    Heure Température Précipitation Vent Pression Humidité
    00:00 +4°C° 0 mm 4 m/s 736 mmHg 77%
    01:00 +4°C° 0 mm 4 m/s 736 mmHg 77%
    02:00 +4°C° 0 mm 4 m/s 736 mmHg 78%
    03:00 +4°C° 0.9 mm 4 m/s 735 mmHg 82%
    04:00 +4°C° 0.9 mm 3 m/s 734 mmHg 87%
    05:00 +4°C° 0.9 mm 3 m/s 733 mmHg 92%
    06:00 +4°C° 2.4 mm 3 m/s 732 mmHg 93%
    07:00 +4°C° 2.4 mm 3 m/s 730 mmHg 94%
    08:00 +5°C° 2.4 mm 3 m/s 729 mmHg 95%
    09:00 +5°C° 0.6 mm 3 m/s 730 mmHg 93%
    10:00 +6°C° 0.6 mm 4 m/s 730 mmHg 91%
    11:00 +7°C° 0.6 mm 4 m/s 730 mmHg 89%
    12:00 +6°C° 0.1 mm 4 m/s 731 mmHg 86%
    13:00 +6°C° 0.1 mm 5 m/s 732 mmHg 84%
    14:00 +6°C° 0.1 mm 5 m/s 733 mmHg 81%
    15:00 +5°C° 0 mm 4 m/s 734 mmHg 81%
    16:00 +5°C° 0 mm 4 m/s 735 mmHg 80%
    17:00 +4°C° 0 mm 4 m/s 736 mmHg 80%
    18:00 +4°C° 0 mm 4 m/s 737 mmHg 81%
    19:00 +3°C° 0 mm 4 m/s 738 mmHg 81%
    20:00 +2°C° 0 mm 3 m/s 739 mmHg 81%
    21:00 +2°C° 0 mm 3 m/s 739 mmHg 83%
    22:00 +2°C° 0 mm 3 m/s 740 mmHg 85%
    23:00 +1°C° 0 mm 3 m/s 740 mmHg 87%

    29 Septembre, Samedi

    Heure Température Précipitation Vent Pression Humidité
    00:00 +1°C° 0 mm 3 m/s 741 mmHg 87%
    01:00 +1°C° 0 mm 3 m/s 741 mmHg 88%
    02:00 0°C° 0 mm 3 m/s 742 mmHg 88%
    03:00 0°C° 0 mm 3 m/s 742 mmHg 88%
    04:00 0°C° 0 mm 3 m/s 743 mmHg 87%
    05:00 -1°C° 0 mm 3 m/s 744 mmHg 87%
    06:00 -1°C° 0 mm 4 m/s 744 mmHg 81%
    07:00 0°C° 0 mm 4 m/s 745 mmHg 76%
    08:00 +1°C° 0 mm 4 m/s 745 mmHg 71%
    09:00 +3°C° 0 mm 4 m/s 746 mmHg 65%
    10:00 +3°C° 0 mm 5 m/s 747 mmHg 59%
    11:00 +5°C° 0 mm 5 m/s 747 mmHg 53%
    12:00 +5°C° 0 mm 5 m/s 748 mmHg 52%
    13:00 +5°C° 0 mm 5 m/s 748 mmHg 51%
    14:00 +5°C° 0 mm 4 m/s 748 mmHg 51%
    15:00 +4°C° 0 mm 4 m/s 749 mmHg 56%
    16:00 +3°C° 0 mm 3 m/s 749 mmHg 61%
    17:00 +3°C° 0 mm 2 m/s 749 mmHg 66%
    18:00 +2°C° 0 mm 2 m/s 750 mmHg 68%
    19:00 +2°C° 0 mm 2 m/s 750 mmHg 70%
    20:00 +1°C° 0 mm 2 m/s 751 mmHg 73%
    21:00 -1°C° 0 mm 2 m/s 751 mmHg 74%
    22:00 -1°C° 0 mm 2 m/s 751 mmHg 76%
    23:00 -1°C° 0 mm 2 m/s 751 mmHg 78%

    30 Septembre, Dimanche

    Heure Température Précipitation Vent Pression Humidité
    00:00 -1°C° 0 mm 2 m/s 752 mmHg 78%
    01:00 -1°C° 0 mm 2 m/s 752 mmHg 78%
    02:00 -1°C° 0 mm 3 m/s 752 mmHg 78%
    03:00 -1°C° 0 mm 3 m/s 752 mmHg 79%
    04:00 -1°C° 0 mm 3 m/s 752 mmHg 79%
    05:00 -1°C° 0 mm 3 m/s 751 mmHg 80%
    06:00 -1°C° 0 mm 4 m/s 751 mmHg 76%
    07:00 0°C° 0 mm 4 m/s 751 mmHg 72%
    08:00 +2°C° 0 mm 5 m/s 751 mmHg 69%
    09:00 +3°C° 0 mm 5 m/s 751 mmHg 65%
    10:00 +5°C° 0 mm 6 m/s 751 mmHg 61%
    11:00 +7°C° 0 mm 6 m/s 751 mmHg 56%
    12:00 +7°C° 0 mm 6 m/s 750 mmHg 55%
    13:00 +8°C° 0 mm 6 m/s 750 mmHg 54%
    14:00 +8°C° 0 mm 6 m/s 750 mmHg 53%
    15:00 +7°C° 0 mm 5 m/s 749 mmHg 56%
    16:00 +6°C° 0 mm 5 m/s 749 mmHg 59%
    17:00 +5°C° 0 mm 4 m/s 749 mmHg 62%
    18:00 +5°C° 0 mm 4 m/s 749 mmHg 63%
    19:00 +5°C° 0 mm 4 m/s 749 mmHg 63%
    20:00 +4°C° 0 mm 4 m/s 749 mmHg 64%
    21:00 +4°C° 0 mm 4 m/s 748 mmHg 65%
    22:00 +4°C° 0 mm 4 m/s 748 mmHg 66%
    23:00 +4°C° 0 mm 4 m/s 748 mmHg 67%
    Voir plus